Location: Unspecified
(0.0000°N, 0.0000°E)
Time: 19:00:33
(UTC+00:00)

Vanguard 1 - Visible Passes

Search period start: 23 July 2024 00:00
Search period end: 02 August 2024 00:00
Orbit: 650 x 3826 km, 34.3° (Epoch: 22 July)

Date Brightness Start Highest point End Pass type
(mag) Time Alt. Az. Time Alt. Az. Time Alt. Az.
23 Jul 13.0 01:42:36 46° NNW 01:42:36 46° NNW 02:02:05 10° NE visible
23 Jul 13.8 03:56:11 10° WNW 04:11:52 23° NNW 04:28:28 10° NNE visible
23 Jul 13.5 23:48:22 25° NE 23:48:22 25° NE 23:55:19 10° NE visible
24 Jul 13.1 02:00:56 38° NNW 02:01:53 38° NNW 02:22:23 10° NE visible
24 Jul 14.0 04:19:29 10° NW 04:34:34 21° N 04:49:42 10° NNE visible
25 Jul 13.4 00:06:40 31° NE 00:06:40 31° NE 00:15:55 10° NE visible
25 Jul 13.3 02:19:14 29° NW 02:23:33 31° NNW 02:42:46 10° NNE visible
25 Jul 14.1 04:42:43 10° NW 04:57:29 20° N 05:11:34 10° NE visible
26 Jul 13.2 00:24:56 35° NNE 00:24:56 35° NNE 00:36:20 10° NE visible
26 Jul 13.5 02:37:30 21° NW 02:45:35 26° NNW 03:03:23 10° NNE visible
26 Jul 14.2 05:05:27 10° NW 05:20:26 20° N 05:34:02 10° NE visible
27 Jul 13.2 00:43:10 36° N 00:43:10 36° N 00:56:39 10° NE visible
27 Jul 13.7 02:55:44 13° NW 03:07:58 22° NNW 03:24:24 10° NNE visible
27 Jul 14.2 05:27:26 10° NW 05:43:14 21° N 05:56:50 10° NE visible
27 Jul 13.9 22:48:50 12° NE 22:48:50 12° NE 22:49:52 10° NE visible
28 Jul 13.2 01:01:24 33° N 01:01:24 33° N 01:16:58 10° NE visible
28 Jul 13.9 03:16:51 10° NW 03:30:39 20° N 03:46:01 10° NE visible
28 Jul 13.7 23:07:02 17° NE 23:07:02 17° NE 23:10:24 10° NE visible
29 Jul 13.3 01:19:35 28° NNW 01:20:12 28° NNW 01:37:23 10° NNE visible
29 Jul 14.0 03:39:34 10° NW 03:53:34 20° N 04:08:21 10° NE visible
29 Jul 13.5 23:25:12 21° NNE 23:25:12 21° NNE 23:30:44 10° NE visible
30 Jul 13.5 01:37:46 22° NNW 01:42:08 23° NNW 01:58:04 10° NNE visible
30 Jul 14.1 04:01:46 10° NW 04:16:31 20° N 04:31:19 10° NE visible
30 Jul 13.4 23:43:22 24° NNE 23:43:22 24° NNE 23:50:57 10° NE visible
31 Jul 13.7 01:55:56 15° NW 02:04:24 20° N 02:19:13 10° NNE visible
31 Jul 14.1 04:23:18 10° NNW 04:39:19 22° NNE 04:54:34 10° ENE visible
31 Jul 11.5 19:07:28 10° S 19:11:00 17° SE 19:11:00 17° SE visible
31 Jul12.821:48:57NE21:48:57NE21:23:42WSWvisible
01 Aug 13.4 00:01:31 25° N 00:01:31 25° N 00:11:09 10° NNE visible
01 Aug 13.8 02:15:16 10° NW 02:26:58 19° N 02:41:07 10° NE visible
01 Aug 14.2 04:44:16 10° NNW 05:01:49 25° NNE 05:17:38 10° ENE visible
01 Aug 11.0 19:26:04 10° SSW 19:30:40 28° SE 19:30:40 28° SE visible
01 Aug13.122:07:05NE22:07:05NE21:43:23WSWvisible
